Radiation Dose at Monitoring Post of Fukushima Daini Nuclear Power Station
Date,Time,MP-1(microSv/h),MP-2(microSv/h),MP-3(microSv/h),MP-4(microSv/h),MP-5(microSv/h),MP-6(microSv/h),MP-7(microSv/h),Wind Direction,Wind Velocity(m/s),Rain
2020/05/30,00:00,0.173,0.158,0.261,0.250,0.246,0.138,0.084,west,4.2,No
2020/05/30,00:10,0.173,0.159,0.262,0.250,0.248,0.137,0.083,west,3.9,No
2020/05/30,00:20,0.174,0.159,0.262,0.249,0.246,0.138,0.083,west,4.5,No
2020/05/30,00:30,0.174,0.158,0.263,0.250,0.248,0.138,0.083,west,5.1,No
2020/05/30,00:40,0.172,0.159,0.261,0.251,0.247,0.137,0.083,west-northwest,3.3,No
2020/05/30,00:50,0.174,0.159,0.261,0.249,0.247,0.137,0.083,west-northwest,3.7,No
2020/05/30,01:00,0.172,0.159,0.263,0.251,0.248,0.137,0.083,west-northwest,2.7,No
2020/05/30,01:10,0.174,0.158,0.262,0.249,0.246,0.138,0.083,west-northwest,2.7,No
2020/05/30,01:20,0.173,0.159,0.262,0.249,0.247,0.137,0.083,west-northwest,3.0,No
2020/05/30,01:30,0.173,0.157,0.262,0.250,0.246,0.137,0.083,west,2.6,No
2020/05/30,01:40,0.173,0.158,0.262,0.249,0.248,0.138,0.083,west,3.8,No
2020/05/30,01:50,0.173,0.158,0.262,0.249,0.246,0.138,0.083,west,4.4,No
2020/05/30,02:00,0.173,0.158,0.261,0.250,0.249,0.137,0.083,west,4.7,No
2020/05/30,02:10,0.173,0.158,0.262,0.250,0.247,0.137,0.083,west,4.9,No
2020/05/30,02:20,0.174,0.158,0.262,0.249,0.247,0.137,0.083,west,3.9,No
2020/05/30,02:30,0.172,0.159,0.262,0.249,0.246,0.137,0.084,west,3.6,No
2020/05/30,02:40,0.174,0.160,0.261,0.250,0.248,0.136,0.083,west,3.2,No
2020/05/30,02:50,0.174,0.159,0.262,0.249,0.246,0.138,0.083,west,3.4,No
2020/05/30,03:00,0.173,0.157,0.262,0.248,0.248,0.136,0.083,west,3.6,No
2020/05/30,03:10,0.173,0.159,0.262,0.250,0.248,0.136,0.083,west,2.6,No
2020/05/30,03:20,0.172,0.158,0.260,0.249,0.247,0.137,0.083,west-northwest,2.3,No
2020/05/30,03:30,0.174,0.158,0.262,0.249,0.249,0.137,0.084,north-northwest,1.2,No
2020/05/30,03:40,0.172,0.160,0.262,0.250,0.246,0.137,0.084,northeast,0.8,No
2020/05/30,03:50,0.172,0.160,0.263,0.249,0.249,0.137,0.083,east-southeast,0.6,No
2020/05/30,04:00,0.174,0.158,0.262,0.249,0.247,0.137,0.083,southeast,0.8,No
2020/05/30,04:10,0.172,0.159,0.261,0.250,0.248,0.138,0.083,east-southeast,1.0,No
2020/05/30,04:20,0.175,0.159,0.263,0.250,0.248,0.138,0.084,southeast,0.8,No
2020/05/30,04:30,0.174,0.158,0.263,0.249,0.248,0.138,0.083,east-southeast,0.6,No
2020/05/30,04:40,0.173,0.159,0.261,0.250,0.251,0.138,0.083,-,CALM,No
2020/05/30,04:50,0.173,0.158,0.263,0.250,0.247,0.138,0.084,-,CALM,No
2020/05/30,05:00,0.173,0.160,0.263,0.250,0.248,0.137,0.083,-,CALM,No
2020/05/30,05:10,0.173,0.158,0.262,0.249,0.248,0.137,0.083,southeast,0.7,No
2020/05/30,05:20,0.172,0.160,0.262,0.250,0.248,0.137,0.083,south-southeast,1.0,No
2020/05/30,05:30,0.173,0.157,0.261,0.249,0.246,0.137,0.084,south-southeast,0.9,No
2020/05/30,05:40,0.174,0.157,0.261,0.249,0.248,0.137,0.083,southeast,0.7,No
2020/05/30,05:50,0.172,0.158,0.263,0.250,0.245,0.137,0.082,south,0.9,No
2020/05/30,06:00,0.173,0.159,0.261,0.248,0.248,0.138,0.083,south-southeast,1.1,No
2020/05/30,06:10,0.174,0.157,0.263,0.250,0.245,0.137,0.083,south-southeast,0.6,No
2020/05/30,06:20,0.174,0.159,0.261,0.248,0.245,0.137,0.083,-,CALM,No
2020/05/30,06:30,0.173,0.158,0.263,0.250,0.247,0.136,0.082,-,CALM,No
2020/05/30,06:40,0.174,0.157,0.260,0.248,0.246,0.137,0.084,south,0.6,No
2020/05/30,06:50,0.173,0.159,0.261,0.249,0.248,0.137,0.084,south,0.9,No
2020/05/30,07:00,0.174,0.158,0.259,0.246,0.246,0.138,0.083,south,0.8,No
2020/05/30,07:10,0.172,0.157,0.263,0.250,0.249,0.136,0.083,-,CALM,No
2020/05/30,07:20,0.174,0.157,0.259,0.248,0.247,0.137,0.084,-,CALM,No
2020/05/30,07:30,0.173,0.159,0.258,0.246,0.246,0.138,0.085,south-southeast,0.9,No
2020/05/30,07:40,0.175,0.159,0.258,0.250,0.249,0.138,0.084,southeast,1.2,No
2020/05/30,07:50,0.173,0.158,0.257,0.249,0.247,0.137,0.083,south-southeast,1.9,No
2020/05/30,08:00,0.172,0.160,0.261,0.248,0.247,0.138,0.084,south-southeast,2.8,No
2020/05/30,08:10,0.175,0.159,0.263,0.247,0.248,0.138,0.084,south-southeast,1.1,No
2020/05/30,08:20,0.173,0.158,0.262,0.251,0.247,0.137,0.084,southeast,1.3,No
2020/05/30,08:30,0.175,0.159,0.261,0.250,0.246,0.137,0.084,southeast,2.2,No
2020/05/30,08:40,0.173,0.159,0.259,0.248,0.249,0.138,0.083,southeast,2.3,No
2020/05/30,08:50,0.172,0.159,0.259,0.247,0.248,0.137,0.084,southeast,2.6,No
2020/05/30,09:00,0.173,0.157,0.259,0.246,0.246,0.138,0.084,southeast,2.2,No
2020/05/30,09:10,0.174,0.158,0.260,0.247,0.245,0.137,0.084,south-southeast,1.8,No
2020/05/30,09:20,0.173,0.160,0.260,0.251,0.250,0.137,0.083,south-southeast,2.0,No
2020/05/30,09:30,0.173,0.161,0.261,0.251,0.249,0.137,0.083,southeast,2.0,No
2020/05/30,09:40,0.171,0.159,0.260,0.250,0.246,0.137,0.084,southeast,2.4,No
2020/05/30,09:50,0.174,0.157,0.261,0.247,0.245,0.137,0.084,southeast,2.5,No
2020/05/30,10:00,0.174,0.157,0.262,0.248,0.245,0.137,0.084,southeast,2.0,No
2020/05/30,10:10,0.173,0.158,0.261,0.247,0.246,0.137,0.083,southeast,1.9,No
2020/05/30,10:20,0.171,0.159,0.261,0.248,0.250,0.137,0.083,southeast,2.0,No
2020/05/30,10:30,0.172,0.160,0.261,0.247,0.249,0.137,0.083,southeast,2.1,No
2020/05/30,10:40,0.170,0.159,0.262,0.246,0.247,0.137,0.083,south-southeast,0.9,No
2020/05/30,10:50,0.174,0.158,0.265,0.249,0.246,0.137,0.083,south-southeast,1.2,No
2020/05/30,11:00,0.175,0.157,0.264,0.253,0.245,0.138,0.084,-,CALM,No
2020/05/30,11:10,0.173,0.158,0.262,0.252,0.246,0.137,0.083,south,0.7,No
2020/05/30,11:20,0.171,0.158,0.262,0.250,0.248,0.136,0.083,southeast,3.0,No
2020/05/30,11:30,0.173,0.160,0.260,0.248,0.250,0.138,0.083,south,2.3,No
2020/05/30,11:40,0.171,0.160,0.260,0.248,0.248,0.138,0.083,southeast,3.4,No
2020/05/30,11:50,0.171,0.159,0.261,0.248,0.247,0.137,0.083,southeast,3.9,No
2020/05/30,12:00,0.172,0.159,0.261,0.249,0.245,0.138,0.083,southeast,4.6,No
2020/05/30,12:10,0.175,0.157,0.262,0.252,0.245,0.139,0.084,southeast,5.4,No
2020/05/30,12:20,0.173,0.159,0.265,0.252,0.245,0.138,0.084,south-southeast,5.8,No
2020/05/30,12:30,0.172,0.160,0.265,0.251,0.249,0.137,0.084,south-southeast,5.3,No
2020/05/30,12:40,0.172,0.160,0.264,0.249,0.251,0.138,0.084,southeast,6.9,No
2020/05/30,12:50,0.172,0.160,0.262,0.249,0.249,0.137,0.083,southeast,6.4,No
2020/05/30,13:00,0.172,0.159,0.262,0.250,0.248,0.139,0.083,south-southeast,6.5,No
2020/05/30,13:10,0.172,0.158,0.263,0.249,0.247,0.140,0.083,south-southeast,7.1,No
2020/05/30,13:20,0.173,0.158,0.262,0.248,0.247,0.139,0.084,southeast,5.9,No
2020/05/30,13:30,0.175,0.158,0.265,0.249,0.246,0.138,0.084,south-southeast,6.0,No
2020/05/30,13:40,0.175,0.158,0.264,0.252,0.244,0.138,0.083,south-southeast,5.9,No
2020/05/30,13:50,0.174,0.160,0.264,0.253,0.245,0.138,0.084,south-southeast,5.8,No
2020/05/30,14:00,0.173,0.160,0.262,0.251,0.245,0.138,0.083,south-southeast,6.2,No
2020/05/30,14:10,0.172,0.160,0.263,0.251,0.246,0.138,0.083,south-southeast,5.7,No
2020/05/30,14:20,0.172,0.157,0.263,0.249,0.246,0.139,0.083,south,5.6,No
2020/05/30,14:30,0.173,0.158,0.260,0.249,0.246,0.138,0.084,south-southeast,7.8,No
2020/05/30,14:40,0.171,0.158,0.262,0.249,0.246,0.138,0.084,south-southeast,8.7,No
2020/05/30,14:50,0.172,0.158,0.266,0.250,0.247,0.138,0.084,south-southeast,8.1,No
2020/05/30,15:00,0.172,0.159,0.265,0.253,0.247,0.138,0.084,south-southeast,7.9,No
2020/05/30,15:10,0.171,0.160,0.263,0.252,0.246,0.138,0.083,south-southeast,8.9,No
2020/05/30,15:20,0.172,0.159,0.262,0.250,0.251,0.138,0.083,south-southeast,9.3,No
2020/05/30,15:30,0.172,0.158,0.262,0.250,0.252,0.137,0.084,south-southeast,8.9,No
2020/05/30,15:40,0.174,0.158,0.263,0.251,0.249,0.138,0.084,south-southeast,9.5,No
2020/05/30,15:50,0.174,0.159,0.266,0.252,0.247,0.138,0.083,south-southeast,9.5,No
2020/05/30,16:00,0.173,0.160,0.263,0.250,0.247,0.139,0.084,south-southeast,7.6,No
2020/05/30,16:10,0.172,0.158,0.262,0.251,0.247,0.137,0.083,south-southeast,10.1,No
2020/05/30,16:20,0.172,0.159,0.267,0.252,0.245,0.138,0.084,south,10.1,No
2020/05/30,16:30,0.173,0.160,0.264,0.250,0.246,0.138,0.083,south-southeast,9.3,No
2020/05/30,16:40,0.176,0.158,0.263,0.251,0.246,0.138,0.084,south,9.2,No
2020/05/30,16:50,0.173,0.160,0.267,0.253,0.250,0.137,0.083,south,10.0,No
2020/05/30,17:00,0.171,0.160,0.265,0.251,0.250,0.138,0.084,south,9.3,No
2020/05/30,17:10,0.173,0.159,0.265,0.253,0.246,0.139,0.084,south,9.0,No
2020/05/30,17:20,0.175,0.161,0.267,0.252,0.247,0.138,0.084,south,9.2,No
2020/05/30,17:30,0.172,0.159,0.263,0.250,0.249,0.138,0.084,south,8.8,No
2020/05/30,17:40,0.173,0.160,0.265,0.253,0.252,0.138,0.083,south,7.9,No
2020/05/30,17:50,0.175,0.159,0.266,0.252,0.247,0.138,0.083,south,7.8,No
2020/05/30,18:00,0.174,0.158,0.262,0.251,0.247,0.138,0.083,south,7.6,No
2020/05/30,18:10,0.172,0.160,0.264,0.253,0.250,0.138,0.083,south,7.8,No
2020/05/30,18:20,0.174,0.158,0.266,0.249,0.248,0.137,0.083,south,8.1,No
2020/05/30,18:30,0.173,0.159,0.262,0.251,0.248,0.139,0.084,south,6.9,No
2020/05/30,18:40,0.172,0.160,0.264,0.250,0.250,0.138,0.083,south,6.1,No
2020/05/30,18:50,0.173,0.159,0.263,0.252,0.246,0.137,0.083,south,6.7,No
2020/05/30,19:00,0.173,0.159,0.264,0.252,0.249,0.138,0.084,south,6.5,No
2020/05/30,19:10,0.174,0.159,0.266,0.249,0.248,0.137,0.083,south,6.8,No
2020/05/30,19:20,0.173,0.160,0.262,0.252,0.250,0.136,0.083,south,7.3,No
2020/05/30,19:30,0.173,0.159,0.266,0.250,0.249,0.139,0.083,south,7.7,No
2020/05/30,19:40,0.174,0.160,0.262,0.252,0.247,0.137,0.083,south,6.3,No
2020/05/30,19:50,0.173,0.159,0.266,0.251,0.249,0.138,0.084,south,6.3,No
2020/05/30,20:00,0.175,0.159,0.264,0.251,0.247,0.138,0.083,south,6.7,No
2020/05/30,20:10,0.174,0.159,0.264,0.252,0.249,0.138,0.084,south,5.8,No
2020/05/30,20:20,0.174,0.160,0.265,0.250,0.250,0.138,0.084,south,4.9,No
2020/05/30,20:30,0.173,0.159,0.263,0.252,0.248,0.137,0.083,south,4.4,No
2020/05/30,20:40,0.172,0.160,0.266,0.251,0.250,0.138,0.083,south,4.4,No
2020/05/30,20:50,0.173,0.160,0.263,0.254,0.248,0.138,0.083,south-southwest,4.9,No
2020/05/30,21:00,0.173,0.159,0.265,0.251,0.250,0.138,0.084,south-southwest,5.7,No
2020/05/30,21:10,0.174,0.159,0.264,0.253,0.248,0.137,0.084,south-southwest,5.0,No
2020/05/30,21:20,0.173,0.160,0.265,0.251,0.248,0.138,0.083,south-southwest,4.7,No
2020/05/30,21:30,0.174,0.160,0.264,0.253,0.247,0.137,0.084,south-southwest,4.3,No
2020/05/30,21:40,0.173,0.159,0.265,0.252,0.248,0.138,0.084,south-southwest,3.8,No
2020/05/30,21:50,0.174,0.160,0.265,0.252,0.249,0.138,0.084,south-southwest,3.8,No
2020/05/30,22:00,0.174,0.160,0.265,0.251,0.247,0.138,0.083,south-southwest,4.4,No
2020/05/30,22:10,0.174,0.160,0.265,0.252,0.250,0.138,0.084,south-southwest,4.3,No
2020/05/30,22:20,0.174,0.160,0.265,0.252,0.247,0.138,0.083,south-southwest,3.8,No
2020/05/30,22:30,0.175,0.160,0.265,0.251,0.249,0.138,0.084,southwest,4.3,No
2020/05/30,22:40,0.173,0.160,0.265,0.252,0.246,0.137,0.084,southwest,5.0,No
2020/05/30,22:50,0.173,0.159,0.266,0.253,0.249,0.138,0.084,southwest,4.1,No
2020/05/30,23:00,0.175,0.161,0.264,0.251,0.248,0.137,0.084,south-southwest,4.9,No
2020/05/30,23:10,0.173,0.160,0.265,0.252,0.249,0.139,0.084,south-southwest,4.9,No
2020/05/30,23:20,0.174,0.159,0.265,0.251,0.247,0.137,0.084,south-southwest,4.4,No
2020/05/30,23:30,0.173,0.160,0.266,0.253,0.248,0.139,0.084,south-southwest,4.5,No
2020/05/30,23:40,0.173,0.160,0.264,0.252,0.249,0.138,0.083,south-southwest,4.7,No
2020/05/30,23:50,0.173,0.159,0.264,0.253,0.248,0.138,0.084,south-southwest,5.0,No
